| time (UTC) | temp F | wind direction | speed MPH | gust MPH | rain 1hr in | rain 24hr in | rain mn in | humidity % | barometer mb |
| 20260506033049 | 57 | 184 | 0.0 | 4.0 | 0.00 | 0.07 | 0.07 | 72 | 1014.1 |
| 20260506033046 | 57 | 0 | 0.0 | 4.0 | 0.00 | 0.07 | 0.07 | 72 | 1016.0 |
| 20260506031552 | 57 | 192 | 0.0 | 3.0 | 0.00 | 0.07 | 0.07 | 70 | 1015.9 |
| 20260506030107 | 57 | 195 | 0.0 | 5.0 | 0.00 | 0.07 | 0.07 | 69 | 1015.7 |
| 20260506030048 | 57 | 195 | 1.0 | 5.0 | 0.00 | 0.07 | 0.07 | 70 | 1013.5 |
| 20260506024558 | 58 | 0 | 0.0 | 4.0 | 0.00 | 0.07 | 0.07 | 67 | 1015.4 |
| 20260506024552 | 58 | 151 | 0.0 | 4.0 | 0.00 | 0.07 | 0.07 | 68 | 1013.3 |
| 20260506023055 | 58 | 208 | 1.0 | 4.0 | 0.00 | 0.07 | 0.07 | 66 | 1013.2 |
| 20260506023051 | 58 | 0 | 0.0 | 3.0 | 0.00 | 0.07 | 0.07 | 66 | 1015.2 |
| 20260506021559 | 58 | 0 | 0.0 | 4.0 | 0.00 | 0.07 | 0.07 | 64 | 1014.9 |
| 20260506021545 | 58 | 208 | 0.0 | 3.0 | 0.00 | 0.07 | 0.07 | 64 | 1012.9 |
| 20260506020054 | 59 | 0 | 0.0 | 4.0 | 0.00 | 0.07 | 0.07 | 64 | 1014.8 |
| 20260506020045 | 59 | 215 | 0.0 | 4.0 | 0.00 | 0.07 | 0.07 | 64 | 1012.8 |
| 20260506014558 | 59 | 214 | 1.0 | 9.0 | 0.00 | 0.07 | 0.07 | 63 | 1014.5 |
| 20260506014545 | 59 | 214 | 1.0 | 8.0 | 0.00 | 0.07 | 0.07 | 63 | 1012.6 |
| 20260506013054 | 59 | 218 | 1.0 | 8.0 | 0.00 | 0.07 | 0.07 | 62 | 1014.4 |
| 20260506013046 | 59 | 218 | 1.0 | 7.0 | 0.00 | 0.07 | 0.07 | 63 | 1012.4 |
| 20260506011551 | 60 | 0 | 0.0 | 5.0 | 0.00 | 0.07 | 0.07 | 61 | 1014.2 |
| 20260506011545 | 60 | 185 | 0.0 | 3.0 | 0.00 | 0.07 | 0.07 | 61 | 1012.3 |
| 20260506010101 | 60 | 0 | 0.0 | 4.0 | 0.00 | 0.07 | 0.07 | 60 | 1014.1 |
| 20260506010054 | 60 | 209 | 0.0 | 4.0 | 0.00 | 0.07 | 0.07 | 60 | 1012.2 |
| 20260506004553 | 61 | 0 | 0.0 | 4.0 | 0.00 | 0.07 | 0.07 | 59 | 1014.0 |
| 20260506004542 | 61 | 125 | 0.0 | 4.0 | 0.00 | 0.07 | 0.07 | 59 | 1012.1 |
| 20260506003057 | 61 | 0 | 1.0 | 6.0 | 0.00 | 0.07 | 0.07 | 57 | 1014.1 |
| 20260506003042 | 61 | 227 | 1.0 | 6.0 | 0.00 | 0.07 | 0.07 | 57 | 1012.2 |
| 20260506001556 | 62 | 0 | 0.0 | 6.0 | 0.00 | 0.07 | 0.07 | 56 | 1013.9 |
| 20260506001545 | 62 | 191 | 0.0 | 6.0 | 0.00 | 0.07 | 0.07 | 56 | 1012.0 |
| 20260506000108 | 63 | 0 | 0.0 | 6.0 | 0.00 | 0.07 | 0.07 | 54 | 1013.8 |
| 20260506000041 | 63 | 187 | 1.0 | 6.0 | 0.00 | 0.07 | 0.07 | 55 | 1011.8 |
| 20260505234557 | 63 | 176 | 2.0 | 7.0 | 0.00 | 0.07 | 0.07 | 53 | 1013.7 |
| 20260505234541 | 63 | 188 | 1.0 | 6.0 | 0.00 | 0.07 | 0.07 | 54 | 1011.8 |
| 20260505233114 | 62 | 195 | 1.0 | 9.0 | 0.00 | 0.07 | 0.07 | 53 | 1013.9 |
| 20260505233046 | 62 | 195 | 1.0 | 9.0 | 0.00 | 0.07 | 0.07 | 53 | 1011.7 |
| 20260505231556 | 62 | 0 | 0.0 | 4.0 | 0.00 | 0.07 | 0.07 | 52 | 1013.8 |
| 20260505231539 | 62 | 195 | 0.0 | 4.0 | 0.00 | 0.07 | 0.07 | 53 | 1012.0 |
| 20260505230058 | 62 | 205 | 0.0 | 4.0 | 0.00 | 0.07 | 0.07 | 55 | 1013.8 |
| 20260505230046 | 62 | 205 | 0.0 | 4.0 | 0.00 | 0.07 | 0.07 | 56 | 1012.1 |
| 20260505224556 | 62 | 0 | 1.0 | 5.0 | 0.00 | 0.07 | 0.07 | 54 | 1013.7 |
| 20260505224543 | 62 | 205 | 1.0 | 5.0 | 0.00 | 0.07 | 0.07 | 55 | 1012.1 |
| 20260505223054 | 62 | 213 | 0.0 | 5.0 | 0.00 | 0.07 | 0.07 | 54 | 1013.8 |
| 20260505223041 | 62 | 212 | 0.0 | 3.0 | 0.00 | 0.07 | 0.07 | 55 | 1012.2 |
| 20260505221600 | 62 | 217 | 0.0 | 6.0 | 0.00 | 0.07 | 0.07 | 54 | 1013.9 |
| 20260505221537 | 62 | 223 | 1.0 | 8.0 | 0.00 | 0.07 | 0.07 | 55 | 1012.2 |
| 20260505220050 | 63 | 0 | 0.0 | 6.0 | 0.00 | 0.07 | 0.07 | 53 | 1013.8 |
| 20260505220036 | 63 | 246 | 0.0 | 6.0 | 0.00 | 0.07 | 0.07 | 54 | 1012.2 |
| 20260505214555 | 64 | 0 | 0.0 | 5.0 | 0.00 | 0.07 | 0.07 | 52 | 1013.9 |
| 20260505214536 | 64 | 200 | 0.0 | 5.0 | 0.00 | 0.07 | 0.07 | 52 | 1012.2 |
| 20260505213051 | 64 | 186 | 0.0 | 7.0 | 0.00 | 0.07 | 0.07 | 50 | 1014.1 |
| 20260505213035 | 64 | 187 | 1.0 | 6.0 | 0.00 | 0.07 | 0.07 | 51 | 1012.4 |
| 20260505211551 | 65 | 0 | 0.0 | 4.0 | 0.00 | 0.07 | 0.07 | 50 | 1014.1 |
| 20260505211535 | 65 | 196 | 0.0 | 3.0 | 0.00 | 0.07 | 0.07 | 50 | 1012.5 |
| 20260505210052 | 66 | 0 | 1.0 | 8.0 | 0.00 | 0.07 | 0.07 | 48 | 1014.1 |
| 20260505210034 | 66 | 184 | 1.0 | 7.0 | 0.00 | 0.07 | 0.07 | 49 | 1012.5 |
| 20260505204633 | 65 | 121 | 2.0 | 5.0 | 0.00 | 0.07 | 0.07 | 53 | 1012.5 |
| 20260505204559 | 65 | 182 | 1.0 | 7.0 | 0.00 | 0.07 | 0.07 | 54 | 1014.2 |
| 20260505203057 | 64 | 177 | 0.0 | 6.0 | 0.00 | 0.07 | 0.07 | 52 | 1014.0 |
| 20260505203037 | 64 | 176 | 1.0 | 6.0 | 0.00 | 0.07 | 0.07 | 52 | 1012.5 |
| 20260505201555 | 66 | 0 | 1.0 | 8.0 | 0.00 | 0.07 | 0.07 | 49 | 1014.3 |
| 20260505201545 | 66 | 220 | 1.0 | 7.0 | 0.00 | 0.07 | 0.07 | 50 | 1012.6 |
| 20260505200051 | 67 | 187 | 1.0 | 7.0 | 0.00 | 0.07 | 0.07 | 48 | 1014.2 |
| 20260505200033 | 67 | 186 | 2.0 | 6.0 | 0.00 | 0.07 | 0.07 | 49 | 1012.6 |
| 20260505194558 | 66 | 0 | 2.0 | 8.0 | 0.00 | 0.07 | 0.07 | 51 | 1014.4 |
| 20260505194529 | 66 | 215 | 3.0 | 8.0 | 0.00 | 0.07 | 0.07 | 51 | 1012.8 |
| 20260505193105 | 65 | 0 | 1.0 | 8.0 | 0.00 | 0.07 | 0.07 | 54 | 1014.9 |
| 20260505193026 | 65 | 197 | 0.0 | 8.0 | 0.00 | 0.07 | 0.07 | 55 | 1013.1 |
| 20260505191558 | 63 | 200 | 0.0 | 6.0 | 0.00 | 0.07 | 0.07 | 60 | 1014.9 |
| 20260505191524 | 63 | 200 | 0.0 | 5.0 | 0.00 | 0.07 | 0.07 | 61 | 1013.0 |
| 20260505190054 | 62 | 205 | 0.0 | 4.0 | 0.00 | 0.07 | 0.07 | 60 | 1015.1 |
| 20260505190032 | 61 | 205 | 0.0 | 4.0 | 0.00 | 0.07 | 0.07 | 60 | 1013.1 |
| 20260505184556 | 62 | 0 | 0.0 | 4.0 | 0.00 | 0.07 | 0.07 | 57 | 1014.9 |
| 20260505184523 | 62 | 214 | 0.0 | 3.0 | 0.00 | 0.07 | 0.07 | 57 | 1013.1 |
| 20260505183055 | 63 | 179 | 1.0 | 8.0 | 0.00 | 0.07 | 0.07 | 56 | 1014.9 |
| 20260505183022 | 63 | 179 | 1.0 | 8.0 | 0.00 | 0.07 | 0.07 | 57 | 1012.9 |
| 20260505181556 | 65 | 126 | 0.0 | 4.0 | 0.00 | 0.07 | 0.07 | 54 | 1014.9 |
| 20260505181521 | 65 | 126 | 0.0 | 4.0 | 0.00 | 0.07 | 0.07 | 55 | 1012.8 |
| 20260505180051 | 63 | 168 | 0.0 | 5.0 | 0.00 | 0.07 | 0.07 | 58 | 1014.9 |
| 20260505180017 | 63 | 167 | 0.0 | 4.0 | 0.00 | 0.07 | 0.07 | 58 | 1013.0 |
| 20260505174553 | 62 | 140 | 0.0 | 3.0 | 0.00 | 0.07 | 0.07 | 60 | 1014.9 |
| 20260505174514 | 62 | 140 | 0.0 | 3.0 | 0.00 | 0.07 | 0.07 | 60 | 1012.8 |
| 20260505173053 | 60 | 0 | 0.0 | 4.0 | 0.00 | 0.07 | 0.07 | 66 | 1014.8 |
| 20260505173010 | 60 | 188 | 0.0 | 4.0 | 0.00 | 0.07 | 0.07 | 66 | 1012.7 |
| 20260505171552 | 58 | 190 | 0.0 | 4.0 | 0.00 | 0.07 | 0.07 | 69 | 1014.8 |
| 20260505171506 | 58 | 189 | 0.0 | 4.0 | 0.00 | 0.07 | 0.07 | 69 | 1012.7 |
| 20260505170056 | 58 | 0 | 0.0 | 4.0 | 0.00 | 0.07 | 0.07 | 74 | 1014.6 |
| 20260505170005 | 58 | 188 | 0.0 | 4.0 | 0.00 | 0.07 | 0.07 | 75 | 1012.6 |
| 20260505164601 | 57 | 189 | 0.0 | 3.0 | 0.00 | 0.07 | 0.07 | 75 | 1012.5 |
| 20260505164553 | 57 | 0 | 0.0 | 3.0 | 0.00 | 0.07 | 0.07 | 74 | 1014.7 |
| 20260505163100 | 57 | 190 | 0.0 | 2.0 | 0.00 | 0.07 | 0.07 | 79 | 1012.2 |
| 20260505163052 | 57 | 0 | 0.0 | 2.0 | 0.00 | 0.07 | 0.07 | 78 | 1014.4 |
| 20260505161619 | 56 | 190 | 0.0 | 1.0 | 0.00 | 0.07 | 0.07 | 85 | 1012.2 |
| 20260505161552 | 56 | 0 | 0.0 | 3.0 | 0.00 | 0.07 | 0.07 | 84 | 1014.5 |
| 20260505153101 | 54 | 0 | 1.0 | 5.0 | 0.00 | 0.07 | 0.07 | 90 | 1014.3 |
| 20260505153052 | 54 | 163 | 0.0 | 4.0 | 0.00 | 0.07 | 0.07 | 91 | 1012.0 |
| 20260505151559 | 54 | 175 | 1.0 | 4.0 | 0.00 | 0.07 | 0.07 | 92 | 1011.9 |
| 20260505151546 | 54 | 176 | 0.0 | 4.0 | 0.00 | 0.07 | 0.07 | 92 | 1014.1 |
| 20260505130116 | 52 | 0 | 0.0 | 2.0 | 0.00 | 0.07 | 0.07 | 91 | 1013.6 |
| 20260505124608 | 52 | 0 | 0.0 | 2.0 | 0.01 | 0.07 | 0.07 | 91 | 1013.4 |
| 20260505124533 | 52 | 175 | 0.0 | 2.0 | 0.01 | 0.07 | 0.07 | 91 | 1011.0 |
| 20260505123115 | 52 | 0 | 0.0 | 3.0 | 0.03 | 0.07 | 0.07 | 90 | 1013.5 |
| 20260505123032 | 52 | 175 | 0.0 | 1.0 | 0.03 | 0.07 | 0.07 | 91 | 1011.0 |
| 20260505121552 | 52 | 175 | 0.0 | 3.0 | 0.04 | 0.07 | 0.07 | 90 | 1013.6 |
| 20260505121537 | 52 | 175 | 0.0 | 2.0 | 0.04 | 0.07 | 0.07 | 90 | 1011.0 |
| 20260505120101 | 52 | 175 | 1.0 | 2.0 | 0.06 | 0.07 | 0.07 | 89 | 1013.7 |
| 20260505120055 | 52 | 175 | 1.0 | 2.0 | 0.06 | 0.07 | 0.07 | 90 | 1011.1 |
| 20260505114555 | 52 | 175 | 0.0 | 2.0 | 0.05 | 0.06 | 0.06 | 89 | 1013.8 |
| 20260505114528 | 52 | 175 | 0.0 | 2.0 | 0.05 | 0.06 | 0.06 | 89 | 1011.2 |
| 20260505113059 | 52 | 0 | 0.0 | 3.0 | 0.03 | 0.04 | 0.04 | 88 | 1013.9 |
| 20260505113028 | 52 | 175 | 0.0 | 3.0 | 0.03 | 0.04 | 0.04 | 89 | 1011.2 |
| 20260505111556 | 52 | 0 | 0.0 | 1.0 | 0.02 | 0.03 | 0.03 | 87 | 1014.1 |
| 20260505111527 | 52 | 175 | 0.0 | 1.0 | 0.02 | 0.03 | 0.03 | 88 | 1011.3 |
| 20260505101554 | 53 | 0 | 0.0 | 0.0 | 0.01 | 0.01 | 0.01 | 85 | 1014.2 |
| 20260505101524 | 53 | 175 | 0.0 | 0.0 | 0.01 | 0.01 | 0.01 | 86 | 1011.1 |
| 20260505100056 | 53 | 0 | 0.0 | 0.0 | 0.01 | 0.01 | 0.01 | 84 | 1014.3 |
| 20260505100025 | 53 | 175 | 0.0 | 0.0 | 0.01 | 0.01 | 0.01 | 85 | 1011.4 |
| 20260505094550 | 53 | 0 | 0.0 | 0.0 | 0.01 | 0.01 | 0.01 | 84 | 1014.4 |
| 20260505094520 | 53 | 175 | 0.0 | 0.0 | 0.01 | 0.01 | 0.01 | 85 | 1011.5 |
| 20260505093054 | 53 | 0 | 0.0 | 0.0 | 0.01 | 0.01 | 0.01 | 84 | 1014.6 |
| 20260505093019 | 53 | 175 | 0.0 | 0.0 | 0.01 | 0.01 | 0.01 | 84 | 1011.5 |
| 20260505091616 | 53 | 0 | 0.0 | 0.0 | 0.00 | 0.00 | 0.00 | 83 | 1014.6 |
| 20260505091525 | 53 | 175 | 0.0 | 0.0 | 0.00 | 0.00 | 0.00 | 83 | 1011.8 |
| 20260505090109 | 53 | 0 | 0.0 | 0.0 | 0.00 | 0.00 | 0.00 | 82 | 1014.7 |
| 20260505090035 | 53 | 175 | 0.0 | 0.0 | 0.00 | 0.00 | 0.00 | 83 | 1012.0 |
| 20260505084607 | 53 | 0 | 0.0 | 0.0 | 0.00 | 0.00 | 0.00 | 81 | 1014.9 |
| 20260505084515 | 53 | 175 | 0.0 | 0.0 | 0.00 | 0.00 | 0.00 | 82 | 1012.0 |
| 20260505083107 | 54 | 0 | 0.0 | 0.0 | 0.00 | 0.00 | 0.00 | 81 | 1015.2 |
| 20260505083015 | 54 | 175 | 0.0 | 0.0 | 0.00 | 0.00 | 0.00 | 81 | 1012.3 |
| 20260505081602 | 54 | 0 | 0.0 | 0.0 | 0.00 | 0.00 | 0.00 | 80 | 1015.4 |
| 20260505081514 | 54 | 175 | 0.0 | 0.0 | 0.00 | 0.00 | 0.00 | 81 | 1012.6 |
| 20260505080009 | 55 | 175 | 0.0 | 0.0 | 0.00 | 0.00 | 0.00 | 80 | 1012.6 |
| 20260505074553 | 55 | 0 | 0.0 | 0.0 | 0.00 | 0.00 | 0.00 | 78 | 1015.7 |
| 20260505074507 | 55 | 175 | 0.0 | 0.0 | 0.00 | 0.00 | 0.00 | 79 | 1012.7 |
| 20260505073102 | 55 | 0 | 0.0 | 0.0 | 0.00 | 0.00 | 0.00 | 76 | 1015.8 |
| 20260505073006 | 55 | 175 | 0.0 | 0.0 | 0.00 | 0.00 | 0.00 | 76 | 1012.8 |
| 20260505071612 | 55 | 0 | 0.0 | 1.0 | 0.00 | 0.00 | 0.00 | 74 | 1015.8 |
| 20260505071513 | 55 | 175 | 0.0 | 1.0 | 0.00 | 0.00 | 0.00 | 75 | 1012.7 |
| 20260505070055 | 55 | 0 | 0.0 | 1.0 | 0.00 | 0.00 | 0.00 | 75 | 1015.8 |
| 20260505070003 | 55 | 175 | 0.0 | 1.0 | 0.00 | 0.00 | 0.00 | 75 | 1012.6 |
| 20260505064555 | 55 | 0 | 0.0 | 3.0 | 0.00 | 0.00 | 0.00 | 75 | 1015.7 |
| 20260505064506 | 55 | 175 | 0.0 | 2.0 | 0.00 | 0.00 | 0.00 | 76 | 1012.7 |
| 20260505063053 | 55 | 0 | 0.0 | 4.0 | 0.00 | 0.00 | 0.00 | 78 | 1015.8 |
| 20260505063002 | 55 | 175 | 0.0 | 3.0 | 0.00 | 0.00 | 0.00 | 79 | 1012.7 |
| 20260505061559 | 55 | 0 | 0.0 | 6.0 | 0.00 | 0.00 | 0.00 | 80 | 1015.8 |
| 20260505061501 | 55 | 169 | 0.0 | 5.0 | 0.00 | 0.00 | 0.00 | 80 | 1012.8 |
| 20260505060001 | 56 | 194 | 1.0 | 4.0 | 0.00 | 0.00 | 0.00 | 80 | 1013.0 |
| 20260505054628 | 56 | 194 | 0.0 | 2.0 | 0.00 | 0.00 | 0.00 | 78 | 1013.1 |
| 20260505054553 | 56 | 194 | 0.0 | 2.0 | 0.00 | 0.00 | 0.00 | 78 | 1016.0 |
| 20260505053114 | 56 | 195 | 0.0 | 3.0 | 0.00 | 0.00 | 0.00 | 77 | 1013.1 |
| 20260505053052 | 56 | 0 | 0.0 | 5.0 | 0.00 | 0.00 | 0.00 | 76 | 1016.0 |
| 20260505051559 | 56 | 196 | 0.0 | 3.0 | 0.00 | 0.00 | 0.00 | 75 | 1013.1 |
| 20260505051550 | 56 | 0 | 0.0 | 3.0 | 0.00 | 0.00 | 0.00 | 74 | 1016.0 |
| 20260505041601 | 57 | 204 | 0.0 | 3.0 | 0.00 | 0.00 | 0.00 | 72 | 1013.1 |
| 20260505041555 | 57 | 0 | 0.0 | 3.0 | 0.00 | 0.00 | 0.00 | 72 | 1016.0 |
| 20260505040058 | 57 | 0 | 0.0 | 4.0 | 0.00 | 0.00 | 0.00 | 70 | 1016.0 |
| 20260505034555 | 57 | 218 | 0.0 | 4.0 | 0.00 | 0.00 | 0.00 | 69 | 1012.7 |